Location: Bluff Heights
(33.7692°N, 118.1592°W)
Time: 11:40:13
(UTC+00:00)

Courier 1B - Visible Passes

Search period start: 03 August 2021 00:00
Search period end: 13 August 2021 00:00
Orbit: 962 x 1209 km, 28.3° (Epoch: 02 August)

Date Brightness Start Highest point End Pass type
(mag) Time Alt. Az. Time Alt. Az. Time Alt. Az.
03 Aug 8.0 04:38:09 10° W 04:45:47 57° S 04:48:40 37° SE visible
03 Aug 9.4 06:32:45 10° W 06:35:33 22° WSW 06:35:33 22° WSW visible
04 Aug 8.1 03:44:09 10° WSW 03:51:52 59° S 03:58:01 16° ESE visible
04 Aug 8.4 05:38:36 10° W 05:44:53 42° SW 05:44:53 42° SW visible
05 Aug 8.2 04:44:30 10° W 04:52:01 50° SSW 04:54:13 40° SSE visible
05 Aug 9.8 06:39:34 10° WSW 06:41:05 15° WSW 06:41:05 15° WSW visible
06 Aug 8.2 03:50:29 10° W 03:58:07 55° S 04:03:32 20° ESE visible
06 Aug 8.9 05:45:13 10° W 05:50:24 30° SW 05:50:24 30° SW visible
07 Aug 8.4 04:51:00 10° W 04:58:11 40° SSW 04:59:45 36° S visible
08 Aug 8.4 03:56:54 10° W 04:04:19 46° SSW 04:09:05 22° SE visible
08 Aug 9.4 05:52:14 10° WSW 05:55:58 20° SW 05:55:58 20° SW visible
09 Aug 8.4 03:02:53 10° W 03:10:25 52° S 03:17:56 10° ESE visible
09 Aug 8.9 04:57:44 10° W 05:04:14 29° SSW 05:05:20 28° S visible
10 Aug 8.8 04:03:30 10° W 04:10:27 35° SSW 04:14:43 21° SSE visible
10 Aug 9.9 06:00:23 10° WSW 06:01:36 12° SW 06:01:36 12° SW visible
11 Aug 8.7 03:09:23 10° W 03:16:36 41° SSW 03:23:49 10° SE visible
11 Aug 9.4 05:05:07 10° WSW 05:10:13 19° SSW 05:11:02 18° SSW visible
12 Aug 9.3 04:10:27 10° WSW 04:16:28 24° SSW 04:20:29 16° SSE visible
